TimeEDT,TemperatureF,Dew PointF,Humidity,Sea Level PressureIn,VisibilityMPH,Wind Direction,Wind SpeedMPH,Gust SpeedMPH,PrecipitationIn,Events,Conditions,WindDirDegrees,DateUTC
12:00 AM,69.3,54.9,60,29.47,-9999.0,SSW,19.6,31.1,N/A,,Unknown,210,2012-10-15 04:00:00
1:00 AM,67.1,55.0,65,29.45,-9999.0,SW,21.9,35.7,N/A,,Unknown,220,2012-10-15 05:00:00
2:00 AM,66,56,62,29.42,,SW,23.0,,,,,220,2012-10-15 06:00:00
2:00 AM,66.2,55.9,69,29.42,-9999.0,SW,23.0,33.4,N/A,,Unknown,220,2012-10-15 06:00:00
3:00 AM,63.1,57.0,80,29.42,-9999.0,SW,26.5,42.6,N/A,,Unknown,230,2012-10-15 07:00:00
4:00 AM,60.6,51.6,72,29.43,-9999.0,WSW,23.0,32.2,N/A,,Unknown,240,2012-10-15 08:00:00
5:00 AM,58.8,50.9,75,29.46,-9999.0,WSW,20.7,32.2,N/A,,Unknown,240,2012-10-15 09:00:00
6:00 AM,57.6,50.9,78,29.50,-9999.0,WSW,17.3,29.9,N/A,,Unknown,250,2012-10-15 10:00:00
7:00 AM,55.8,46.6,71,29.55,-9999.0,WSW,12.7,19.6,N/A,,Unknown,250,2012-10-15 11:00:00
8:00 AM,56,45,58,29.56,,West,13.8,,,,,260,2012-10-15 12:00:00
8:00 AM,55.8,45.3,68,29.56,-9999.0,West,13.8,20.7,N/A,,Unknown,260,2012-10-15 12:00:00
9:00 AM,55.2,42.6,63,29.58,-9999.0,West,17.3,34.5,N/A,,Unknown,260,2012-10-15 13:00:00
11:00 AM,54.5,41.2,61,29.61,-9999.0,West,19.6,29.9,N/A,,Unknown,270,2012-10-15 15:00:00
12:00 PM,53.8,41.7,64,29.63,-9999.0,West,17.3,26.5,N/A,,Unknown,260,2012-10-15 16:00:00
1:00 PM,55.8,41.0,58,29.64,-9999.0,West,15.0,21.9,N/A,,Unknown,270,2012-10-15 17:00:00
2:00 PM,56,42,49,29.63,,West,18.4,,,,,270,2012-10-15 18:00:00
2:00 PM,56.1,42.1,59,29.63,-9999.0,West,18.4,26.5,N/A,,Unknown,270,2012-10-15 18:00:00
3:00 PM,54.0,40.6,61,29.65,-9999.0,West,15.0,27.6,N/A,,Unknown,280,2012-10-15 19:00:00
4:00 PM,53.4,41.5,64,29.65,-9999.0,West,15.0,24.2,N/A,,Unknown,260,2012-10-15 20:00:00
5:00 PM,49.6,41.9,75,29.69,-9999.0,West,13.8,20.7,N/A,,Unknown,280,2012-10-15 21:00:00
6:00 PM,49.3,39.4,69,29.71,-9999.0,West,11.5,-,N/A,,Unknown,280,2012-10-15 22:00:00
7:00 PM,48.4,38.1,68,29.74,-9999.0,West,8.1,-,N/A,,Unknown,280,2012-10-15 23:00:00
8:00 PM,48,38,60,29.76,,WNW,8.1,,,,,300,2012-10-16 00:00:00
8:00 PM,47.8,38.3,70,29.76,-9999.0,WNW,8.1,-,N/A,,Unknown,300,2012-10-16 00:00:00
9:00 PM,47.8,37.9,69,29.78,-9999.0,WNW,9.2,-,N/A,,Unknown,290,2012-10-16 01:00:00
10:00 PM,47.5,38.7,71,29.80,-9999.0,NW,10.4,18.4,N/A,,Unknown,310,2012-10-16 02:00:00
11:00 PM,47.1,38.7,72,29.81,-9999.0,NW,9.2,-,N/A,,Unknown,320,2012-10-16 03:00:00